* Astronomy

Members Login
Post Info TOPIC: Asteroid 2010 EO65


L

Posts: 131433
Date:
Asteroid 2010 EO65
Permalink  
 


Orbital elements:
2010 EO65
Epoch 2011 Feb. 8.0 TT = JDT 2455600.5                  MPC
M 347.26684              (2000.0)            P               Q
n   0.00792320     Peri.  270.71915     -0.67498437     +0.72488982
a  24.9192781      Node   315.75484     -0.57389275     -0.63300155
e   0.4381384      Incl.   11.37302     -0.46372752     -0.27174213
P 124.40           H    9.6           G   0.15           U   4

MPEC 2011 - G19



__________________
Page 1 of 1  sorted by
Quick Reply

Please log in to post quick replies.



Create your own FREE Forum
Report Abuse
Powered by ActiveBoard